[[{"header":{"parameterUnit":"m.s-1","parameterCategory":1,"la1":30.2991,"la2":30.254,"lo1":-89.0895,"lo2":-89.0444,"dy":0.0017,"dx":0.0017,"nx":28,"ny":28,"refTime":"2023-09-11T03:00:00:Z","depth":0,"parameterNumber":2,"parameterNumberName":"U-component_of_WINDS"},"data":[0,0,0,0,0,0,0,0,0,0,0,0,0,0,0,0,0,0,0,0,0,0,0,0,0,0,0,0,0,0,0,0,0,0,0,0,0,0,0,0,0,0,0,0,0,0,0,0,0,0,0,0,0,0,0,0,0,0,1.4417,1.4418,0,1.4595,1.4597,1.4599,1.4664,1.4663,1.4662,1.4662,1.4848,1.4854,1.4859,0,0,0,0,0,0,0,0,0,0,0,0,0,1.4133,1.4138,1.4416,1.4419,1.4421,1.4595,1.4597,1.46,1.4664,1.4663,1.4662,1.4662,1.4847,1.4853,1.486,0,0,0,0,0,0,0,0,0,0,0,0,0,1.4278,1.4139,1.4416,1.4474,1.4481,1.4594,1.4597,1.46,1.4664,1.4663,1.4662,1.4661,1.4844,1.4853,1.4861,1.4931,0,0,1.4886,1.489,0,0,0,0,0,0,0,0,1.427,1.4289,1.4463,1.447,1.4478,1.4606,1.4566,1.4712,1.4664,1.4594,1.4662,1.4661,1.4769,1.4783,1.4819,1.494,1.4948,1.4887,1.4892,1.4896,1.4898,0,0,0,0,0,0,0,1.426,1.4281,1.4487,1.4465,1.4475,1.4491,1.4511,1.4594,1.4685,1.46,1.4606,1.4626,1.4773,1.4811,1.4824,1.4951,1.4887,1.4894,1.4899,1.4903,1.5138,1.5139,0,0,0,0,0,0,1.424,1.4273,1.4482,1.4493,1.4369,1.4497,1.4519,1.4566,1.4684,1.4701,1.4626,1.4628,1.4797,1.4814,1.4831,1.492,1.4896,1.4903,1.4908,1.5137,1.5138,1.5139,0,0,0,0,0,0,1.4233,1.4258,1.4474,1.4384,1.4413,1.4503,1.4555,1.457,1.4608,1.4704,1.472,1.4648,1.4797,1.4819,1.4905,1.4928,1.4907,1.4915,1.5135,1.5137,1.5139,1.51,0,0,0,0,0,0,1.4225,1.4255,1.4282,1.4384,1.4417,1.4545,1.4557,1.4574,1.4622,1.4626,1.4729,1.4745,1.4798,1.4892,1.4914,1.4939,1.4921,1.5134,1.5136,1.5138,1.51,1.5101,1.5101,0,0,0,0,0,1.4215,1.4265,1.4283,1.4308,1.4453,1.4546,1.4565,1.4624,1.4623,1.4652,1.4713,1.4742,1.4922,1.4901,1.4925,1.4953,1.5132,1.5135,1.5138,1.51,1.5101,1.5101,0,0,0,0,0,0,1.4165,1.428,1.4301,1.4386,1.4456,1.4557,1.4594,1.4623,1.4696,1.4697,1.4768,1.4791,1.4871,1.4921,1.4896,1.5027,1.5029,1.5037,1.4991,1.4993,1.4994,1.498,1.4928,0,0,0,0,0,1.4164,1.4229,1.4326,1.4392,1.4425,1.4504,1.4547,1.4586,1.4661,1.4691,1.4759,1.4832,1.4905,1.4952,1.5025,1.5108,1.5131,1.5139,1.5139,1.5139,1.5145,1.5192,1.5196,1.5149,1.5149,1.5149,0,0,1.4162,1.4233,1.427,1.4383,1.4442,1.4508,1.4528,1.4598,1.4648,1.4703,1.4788,1.484,1.4926,1.501,1.5051,1.5055,1.5163,1.5143,1.5142,1.5148,1.5195,1.52,1.5204,1.5151,1.515,1.515,0,0,1.4193,1.4253,1.4314,1.4372,1.446,1.4512,1.4526,1.4623,1.4659,1.4745,1.4787,1.4848,1.4973,1.5032,1.5079,1.5131,1.516,1.5153,1.5156,1.5201,1.5204,1.5208,1.5226,1.5232,1.5158,1.5158,1.5158,0,1.4181,1.4282,1.4342,1.4409,1.4458,1.4509,1.4571,1.4625,1.4732,1.4765,1.4767,1.4923,1.4985,1.5084,1.5096,1.5132,1.5151,1.5141,1.5199,1.5203,1.5207,1.5225,1.5232,1.5157,1.5157,1.5157,1.5157,0,1.4261,1.433,1.4369,1.447,1.4523,1.4587,1.4658,1.4705,1.4739,1.479,1.4877,1.4953,1.5041,1.5068,1.5103,1.5171,1.517,1.5185,1.5188,1.5209,1.5227,1.5235,1.5155,1.5155,1.5156,1.5156,0,0,1.4267,1.4399,1.4412,1.4458,1.4558,1.4614,1.468,1.4765,1.4803,1.4876,1.4933,1.5037,1.505,1.5103,1.5145,1.5184,1.5219,1.5194,1.5197,1.5195,1.5299,1.5287,1.5294,1.5239,1.5241,1.5242,1.5291,0,1.431,1.443,1.4486,1.4582,1.4646,1.4695,1.4753,1.4821,1.487,1.4933,1.4989,1.506,1.5073,1.5105,1.5146,1.5206,1.5241,1.5204,1.5294,1.5296,1.527,1.5303,1.5292,1.5334,1.5299,1.53,1.5301,0,1.4377,1.4448,1.4549,1.4641,1.467,1.4721,1.4803,1.4862,1.494,1.4973,1.5031,1.5071,1.5144,1.5141,1.5242,1.5215,1.5255,1.529,1.5293,1.5304,1.5299,1.5314,1.535,1.5356,1.5313,1.5312,1.5311,0,1.437,1.449,1.4566,1.4604,1.4713,1.4748,1.4795,1.4872,1.4919,1.4991,1.5023,1.5102,1.5146,1.5207,1.5268,1.5261,1.5362,1.5365,1.5392,1.539,1.5411,1.5409,1.5453,1.5437,1.5437,1.5437,1.5437,0,1.4413,1.4473,1.4564,1.4611,1.4679,1.4743,1.481,1.4861,1.4929,1.4986,1.5034,1.5087,1.5165,1.5228,1.5276,1.5351,1.5371,1.54,1.5412,1.5396,1.5392,1.5423,1.5421,1.5439,1.5439,1.5438,1.5438,0,1.4416,1.448,1.4566,1.4661,1.4687,1.4733,1.4815,1.4863,1.4914,1.4986,1.5007,1.5088,1.5165,1.5231,1.5333,1.5366,1.5443,1.5458,1.5416,1.5422,1.5445,1.5442,1.551,1.5522,1.5499,1.5499,1.5499,0,1.4439,1.4486,1.4586,1.4627,1.4673,1.474,1.4788,1.4852,1.49,1.4992,1.5028,1.5108,1.5175,1.5296,1.5364,1.5442,1.5459,1.5478,1.5471,1.5453,1.5459,1.5455,1.546,1.5477,1.5477,1.5477,1.5477,0,1.4472,1.4501,1.4568,1.4645,1.4701,1.4765,1.4831,1.4862,1.494,1.4991,1.5069,1.5121,1.5224,1.5303,1.5388,1.5437,1.547,1.5479,1.5489,1.5472,1.5446,1.546,1.5416,1.5477,1.5477,1.5477,1.5477,1.5477,1.4486,1.453,1.4606,1.4679,1.4735,1.4795,1.4844,1.49,1.4966,1.5054,1.5089,1.5168,1.5245,1.5362,1.5412,1.5475,1.5481,1.5496,1.5499,1.5502,1.5499,1.5435,1.5491,1.5491,1.5491,1.5491,1.5491,0,1.4521,1.4573,1.4639,1.4728,1.4785,1.481,1.4884,1.493,1.4999,1.5067,1.5132,1.5221,1.5297,1.5371,1.5451,1.5488,1.5505,1.5506,1.5504,1.5515,1.549,1.5472,1.5491,1.5491,1.5491,1.5491,1.5491,1.5491,1.4546,1.4621,1.4659,1.4762,1.4813,1.4891,1.4931,1.4986,1.5041,1.5138,1.5201,1.5248,1.5319,1.5404,1.5475,1.5495,1.5522,1.5519,1.5543,1.5518,1.5517,1.5516,1.55,1.5525,1.5525,1.5563,1.5563,1.5564]},{"header":{"parameterUnit":"m.s-1","parameterCategory":1,"la1":30.2991,"la2":30.254,"lo1":-89.0895,"lo2":-89.0444,"dy":0.0017,"dx":0.0017,"nx":28,"ny":28,"refTime":"2023-09-11T03:00:00:Z","depth":0,"parameterNumber":3,"parameterNumberName":"V-component_of_WINDS"},"data":[0,0,0,0,0,0,0,0,0,0,0,0,0,0,0,0,0,0,0,0,0,0,0,0,0,0,0,0,0,0,0,0,0,0,0,0,0,0,0,0,0,0,0,0,0,0,0,0,0,0,0,0,0,0,0,0,0,0,3.0574,3.0574,0,3.0557,3.0557,3.0557,3.0547,3.0547,3.0547,3.0547,3.0527,3.0526,3.0526,0,0,0,0,0,0,0,0,0,0,0,0,0,3.0593,3.0593,3.0574,3.0574,3.0574,3.0557,3.0557,3.0557,3.0547,3.0547,3.0547,3.0547,3.0527,3.0527,3.0526,0,0,0,0,0,0,0,0,0,0,0,0,0,3.0581,3.0593,3.0574,3.0567,3.0566,3.0557,3.0557,3.0557,3.0547,3.0547,3.0547,3.0547,3.0527,3.0527,3.0526,3.0522,0,0,3.0523,3.0523,0,0,0,0,0,0,0,0,3.0582,3.0581,3.0568,3.0568,3.0567,3.0554,3.0556,3.0545,3.0547,3.0554,3.0547,3.0547,3.0536,3.0534,3.0531,3.0521,3.052,3.0523,3.0523,3.0523,3.0522,0,0,0,0,0,0,0,3.0583,3.0581,3.0567,3.0568,3.0567,3.0563,3.0561,3.0554,3.0545,3.0554,3.0553,3.0551,3.0535,3.0532,3.0531,3.052,3.0523,3.0523,3.0522,3.0522,3.0501,3.05,0,0,0,0,0,0,3.0586,3.0582,3.0568,3.0567,3.0575,3.0563,3.0561,3.0558,3.0546,3.0544,3.0551,3.0551,3.0533,3.0532,3.053,3.0522,3.0523,3.0522,3.0521,3.0501,3.0501,3.05,0,0,0,0,0,0,3.0586,3.0584,3.0569,3.0574,3.0572,3.0562,3.056,3.0558,3.0555,3.0544,3.0542,3.055,3.0533,3.0531,3.0523,3.0521,3.0522,3.0521,3.0501,3.0501,3.05,3.0507,0,0,0,0,0,0,3.0587,3.0585,3.0585,3.0574,3.0572,3.0564,3.056,3.0558,3.0554,3.0553,3.0542,3.054,3.0533,3.0524,3.0522,3.052,3.052,3.0501,3.0501,3.0501,3.0507,3.0507,3.0507,0,0,0,0,0,3.0587,3.0587,3.0585,3.0583,3.0572,3.0564,3.0562,3.0555,3.0554,3.0552,3.0544,3.054,3.0522,3.0524,3.0521,3.0519,3.0501,3.0501,3.0501,3.0507,3.0507,3.0507,0,0,0,0,0,0,3.0597,3.0586,3.0583,3.058,3.0573,3.0562,3.0561,3.0556,3.0549,3.0548,3.0539,3.0536,3.0529,3.0523,3.0525,3.0512,3.0511,3.051,3.0516,3.0516,3.0516,3.0517,3.052,0,0,0,0,0,3.0599,3.0595,3.0585,3.0583,3.058,3.0571,3.0567,3.0562,3.0554,3.0551,3.0543,3.0534,3.0526,3.0521,3.0513,3.0506,3.0501,3.0502,3.0503,3.0503,3.0502,3.0494,3.0493,3.05,3.05,3.05,0,0,3.0603,3.0597,3.0595,3.0585,3.0579,3.0573,3.0569,3.0563,3.0558,3.055,3.0541,3.0535,3.0524,3.0516,3.0512,3.0511,3.0499,3.0502,3.0503,3.0502,3.0494,3.0493,3.0493,3.0499,3.0499,3.05,0,0,3.0607,3.0603,3.0599,3.0593,3.0583,3.0577,3.0576,3.0565,3.056,3.0552,3.0545,3.0537,3.0524,3.0516,3.051,3.0506,3.0501,3.0504,3.0504,3.0497,3.0496,3.0496,3.0492,3.0491,3.0503,3.0503,3.0503,0,3.0613,3.0605,3.0598,3.0592,3.0587,3.0579,3.0573,3.0567,3.0556,3.0551,3.055,3.0531,3.0524,3.0511,3.051,3.0507,3.0503,3.0505,3.0497,3.0497,3.0496,3.0492,3.0491,3.0504,3.0503,3.0503,3.0503,0,3.0611,3.0605,3.0604,3.0592,3.0586,3.0581,3.0571,3.0565,3.056,3.0552,3.0541,3.0532,3.052,3.0517,3.0512,3.0503,3.0502,3.0499,3.0498,3.0496,3.0492,3.049,3.0504,3.0504,3.0504,3.0504,0,0,3.0623,3.0605,3.0605,3.0598,3.0585,3.058,3.0572,3.0561,3.0555,3.0546,3.0538,3.0525,3.0522,3.0515,3.0508,3.0502,3.0496,3.0499,3.0499,3.0497,3.0481,3.0482,3.0481,3.0492,3.0492,3.0491,3.0481,0,3.0623,3.0611,3.0603,3.0593,3.0585,3.0576,3.0569,3.0559,3.0551,3.0542,3.0533,3.0523,3.052,3.0515,3.0509,3.0498,3.0492,3.0499,3.0482,3.0481,3.0484,3.0479,3.0481,3.0473,3.048,3.048,3.048,0,3.0623,3.0614,3.0603,3.0588,3.0585,3.0579,3.0566,3.0559,3.0546,3.054,3.053,3.0523,3.0512,3.0511,3.0494,3.0498,3.049,3.0483,3.0483,3.048,3.048,3.0475,3.047,3.0468,3.0478,3.0478,3.0478,0,3.063,3.0615,3.0606,3.06,3.0583,3.0579,3.0571,3.0558,3.0551,3.0539,3.0533,3.052,3.0513,3.0501,3.0489,3.049,3.0472,3.0471,3.0464,3.0465,3.0461,3.0461,3.0453,3.0458,3.0458,3.0458,3.0458,0,3.0631,3.0624,3.0608,3.0602,3.0593,3.0582,3.0573,3.0564,3.0552,3.0542,3.0533,3.0524,3.051,3.0498,3.0488,3.0473,3.047,3.0463,3.0461,3.0463,3.0464,3.0458,3.0457,3.0458,3.0458,3.0458,3.0458,0,3.0637,3.0626,3.0615,3.0599,3.0595,3.0588,3.0574,3.0566,3.0556,3.0544,3.054,3.0525,3.051,3.0497,3.0478,3.0471,3.0455,3.0452,3.0459,3.0458,3.0451,3.0451,3.0438,3.0434,3.0443,3.0443,3.0443,0,3.0638,3.0632,3.0615,3.0608,3.0601,3.059,3.0582,3.0569,3.0561,3.0544,3.0537,3.0522,3.0509,3.0485,3.0471,3.0455,3.0451,3.0447,3.0448,3.045,3.0448,3.0448,3.0446,3.0447,3.0447,3.0447,3.0447,0,3.064,3.0634,3.0623,3.061,3.06,3.0589,3.0577,3.0571,3.0556,3.0546,3.0531,3.0521,3.05,3.0483,3.0465,3.0455,3.0447,3.0446,3.0443,3.0446,3.0449,3.0445,3.0457,3.0447,3.0447,3.0447,3.0447,3.0447,3.0642,3.0635,3.0621,3.0608,3.0598,3.0586,3.0577,3.0566,3.0553,3.0536,3.0529,3.0512,3.0495,3.047,3.0459,3.0444,3.0443,3.044,3.0439,3.0438,3.0437,3.0452,3.0441,3.0441,3.0441,3.0441,3.0441,0,3.0641,3.0631,3.062,3.0603,3.0592,3.0586,3.0571,3.0562,3.0548,3.0534,3.052,3.0501,3.0484,3.0467,3.0448,3.0439,3.0435,3.0435,3.0435,3.0432,3.0441,3.0444,3.0438,3.0438,3.0438,3.0438,3.0438,3.0438,3.064,3.0627,3.0619,3.0599,3.0589,3.0573,3.0565,3.0553,3.0541,3.052,3.0506,3.0495,3.0478,3.0458,3.0441,3.0436,3.0429,3.0429,3.0423,3.0431,3.0432,3.0432,3.0435,3.0428,3.0428,3.0415,3.0415,3.0415]}]]